| time (UTC) | temp F | wind direction | speed knots | gust knots | rain 1hr in | rain 24hr in | rain mn in | humidity % | barometer mb |
| 20260905233108 | 78 | 0 | 0.0 | 0.0 | 0.00 | 0.51 | 0.51 | 87 | 1011.0 |
| 20260905231554 | 79 | 0 | 0.0 | 0.9 | 0.00 | 0.51 | 0.51 | 85 | 1011.0 |
| 20260905230100 | 80 | 0 | 0.0 | 0.9 | 0.00 | 0.51 | 0.51 | 84 | 1011.2 |
| 20260905224601 | 80 | 0 | 0.0 | 0.9 | 0.00 | 0.51 | 0.51 | 84 | 1010.8 |
| 20260905223054 | 79 | 15 | 0.0 | 1.7 | 0.00 | 0.51 | 0.51 | 85 | 1010.8 |
| 20260905221551 | 78 | 0 | 0.0 | 0.9 | 0.00 | 0.51 | 0.51 | 88 | 1010.7 |
| 20260905220104 | 76 | 0 | 0.0 | 0.0 | 0.00 | 0.51 | 0.51 | 90 | 1010.7 |
| 20260905214556 | 75 | 0 | 0.0 | 1.7 | 0.00 | 0.51 | 0.51 | 90 | 1011.1 |
| 20260905213057 | 74 | 0 | 0.0 | 2.6 | 0.00 | 0.51 | 0.51 | 91 | 1011.5 |
| 20260905211555 | 74 | 0 | 0.0 | 0.9 | 0.00 | 0.51 | 0.51 | 92 | 1011.5 |
| 20260905210107 | 73 | 0 | 0.0 | 0.9 | 0.00 | 0.51 | 0.51 | 92 | 1011.6 |
| 20260905204550 | 73 | 23 | 0.0 | 0.9 | 0.00 | 0.51 | 0.51 | 93 | 1011.5 |
| 20260905203056 | 73 | 9 | 0.0 | 0.9 | 0.00 | 0.51 | 0.51 | 93 | 1011.1 |
| 20260905201604 | 73 | 0 | 0.0 | 1.7 | 0.00 | 0.51 | 0.51 | 93 | 1011.2 |
| 20260905200116 | 72 | 0 | 0.0 | 0.9 | 0.00 | 0.51 | 0.51 | 93 | 1012.0 |
| 20260905194546 | 71 | 345 | 0.0 | 0.0 | 0.20 | 0.51 | 0.51 | 92 | 1012.0 |
| 20260905193051 | 71 | 0 | 0.0 | 0.9 | 0.51 | 0.51 | 0.51 | 91 | 1011.6 |
| 20260905191552 | 71 | 334 | 0.0 | 2.6 | 0.51 | 0.51 | 0.51 | 90 | 1011.7 |
| 20260905190051 | 73 | 0 | 0.9 | 13.9 | 0.51 | 0.51 | 0.51 | 85 | 1011.5 |
| 20260905184609 | 78 | 15 | 2.6 | 17.4 | 0.31 | 0.31 | 0.31 | 77 | 1013.6 |
| 20260905183053 | 95 | 0 | 0.9 | 4.3 | 0.00 | 0.00 | 0.00 | 51 | 1011.5 |
| 20260905181607 | 98 | 0 | 0.0 | 7.0 | 0.00 | 0.00 | 0.00 | 46 | 1011.0 |
| 20260905180059 | 98 | 219 | 0.9 | 7.0 | 0.00 | 0.00 | 0.00 | 50 | 1011.6 |
| 20260905174600 | 97 | 94 | 0.0 | 1.7 | 0.00 | 0.00 | 0.00 | 49 | 1011.9 |
| 20260905173057 | 97 | 333 | 0.0 | 3.5 | 0.00 | 0.00 | 0.00 | 52 | 1012.2 |
| 20260905171604 | 98 | 0 | 0.0 | 1.7 | 0.00 | 0.00 | 0.00 | 51 | 1012.5 |
| 20260905170100 | 96 | 86 | 0.0 | 2.6 | 0.00 | 0.00 | 0.00 | 56 | 1012.8 |
| 20260905164555 | 95 | 212 | 0.9 | 7.0 | 0.00 | 0.00 | 0.00 | 54 | 1012.9 |
| 20260905163054 | 95 | 239 | 1.7 | 4.3 | 0.00 | 0.00 | 0.00 | 54 | 1013.2 |
| 20260905161550 | 94 | 159 | 1.7 | 5.2 | 0.00 | 0.00 | 0.00 | 55 | 1013.2 |
| 20260905160058 | 94 | 212 | 0.9 | 3.5 | 0.00 | 0.00 | 0.00 | 56 | 1013.3 |
| 20260905154557 | 92 | 203 | 0.9 | 3.5 | 0.00 | 0.00 | 0.00 | 60 | 1013.5 |
| 20260905153051 | 91 | 126 | 0.9 | 3.5 | 0.00 | 0.00 | 0.00 | 61 | 1013.5 |
| 20260905151602 | 90 | 188 | 1.7 | 3.5 | 0.00 | 0.00 | 0.00 | 66 | 1013.5 |
| 20260905150055 | 91 | 219 | 0.9 | 1.7 | 0.00 | 0.00 | 0.00 | 68 | 1013.6 |
| 20260905144555 | 89 | 140 | 0.0 | 1.7 | 0.00 | 0.00 | 0.00 | 70 | 1013.6 |
| 20260905143050 | 87 | 156 | 0.9 | 3.5 | 0.00 | 0.00 | 0.00 | 73 | 1013.6 |
| 20260905141550 | 86 | 244 | 0.0 | 1.7 | 0.00 | 0.00 | 0.00 | 72 | 1013.7 |
| 20260905140059 | 86 | 152 | 0.0 | 1.7 | 0.00 | 0.00 | 0.00 | 74 | 1013.7 |
| 20260905134557 | 86 | 0 | 0.0 | 0.9 | 0.00 | 0.00 | 0.00 | 74 | 1013.9 |
| 20260905133051 | 84 | 0 | 0.0 | 0.9 | 0.00 | 0.00 | 0.00 | 78 | 1013.9 |
| 20260905131556 | 82 | 0 | 0.0 | 0.9 | 0.00 | 0.00 | 0.00 | 85 | 1014.1 |
| 20260905130057 | 78 | 0 | 0.0 | 0.9 | 0.00 | 0.00 | 0.00 | 89 | 1014.1 |
| 20260905124551 | 75 | 0 | 0.0 | 0.0 | 0.00 | 0.00 | 0.00 | 94 | 1014.3 |
| 20260905123106 | 74 | 0 | 0.0 | 0.0 | 0.00 | 0.00 | 0.00 | 94 | 1014.1 |
| 20260905121554 | 73 | 0 | 0.0 | 0.0 | 0.00 | 0.00 | 0.00 | 94 | 1014.1 |
| 20260905114608 | 72 | 0 | 0.0 | 0.0 | 0.00 | 0.00 | 0.00 | 94 | 1014.0 |
| 20260905113051 | 72 | 0 | 0.0 | 0.0 | 0.00 | 0.00 | 0.00 | 94 | 1013.6 |
| 20260905111605 | 72 | 0 | 0.0 | 0.0 | 0.00 | 0.00 | 0.00 | 94 | 1013.3 |
| 20260905104558 | 72 | 0 | 0.0 | 0.0 | 0.00 | 0.00 | 0.00 | 93 | 1012.9 |
| 20260905103101 | 72 | 0 | 0.0 | 0.0 | 0.00 | 0.00 | 0.00 | 93 | 1012.8 |
| 20260905101552 | 72 | 0 | 0.0 | 0.0 | 0.00 | 0.00 | 0.00 | 93 | 1012.9 |
| 20260905100105 | 73 | 0 | 0.0 | 0.0 | 0.00 | 0.00 | 0.00 | 93 | 1012.6 |
| 20260905094605 | 73 | 0 | 0.0 | 0.0 | 0.00 | 0.00 | 0.00 | 93 | 1012.7 |
| 20260905093102 | 73 | 0 | 0.0 | 0.9 | 0.00 | 0.00 | 0.00 | 93 | 1012.8 |
| 20260905091600 | 73 | 0 | 0.0 | 0.0 | 0.00 | 0.00 | 0.00 | 92 | 1012.9 |
| 20260905090057 | 73 | 0 | 0.0 | 0.0 | 0.00 | 0.00 | 0.00 | 92 | 1012.9 |
| 20260905084555 | 74 | 0 | 0.0 | 0.0 | 0.00 | 0.00 | 0.00 | 92 | 1012.9 |
| 20260905083049 | 74 | 0 | 0.0 | 0.0 | 0.00 | 0.00 | 0.00 | 91 | 1013.1 |
| 20260905081611 | 75 | 0 | 0.0 | 0.9 | 0.00 | 0.00 | 0.00 | 91 | 1013.2 |
| 20260905080057 | 75 | 0 | 0.0 | 0.0 | 0.00 | 0.00 | 0.00 | 91 | 1013.2 |
| 20260905074603 | 75 | 0 | 0.0 | 0.9 | 0.00 | 0.00 | 0.00 | 91 | 1013.3 |
| 20260905073100 | 75 | 0 | 0.0 | 0.9 | 0.00 | 0.00 | 0.00 | 91 | 1013.2 |
| 20260905071601 | 75 | 0 | 0.0 | 0.0 | 0.00 | 0.00 | 0.00 | 91 | 1013.4 |
| 20260905070055 | 75 | 0 | 0.0 | 0.0 | 0.00 | 0.00 | 0.00 | 91 | 1013.5 |
| 20260905064557 | 76 | 0 | 0.0 | 0.0 | 0.00 | 0.00 | 0.00 | 91 | 1013.8 |
| 20260905063105 | 76 | 0 | 0.0 | 0.0 | 0.00 | 0.00 | 0.00 | 91 | 1014.1 |
| 20260905061609 | 76 | 0 | 0.0 | 0.0 | 0.00 | 0.00 | 0.00 | 92 | 1014.3 |
| 20260905060053 | 76 | 0 | 0.0 | 0.0 | 0.00 | 0.00 | 0.00 | 92 | 1014.5 |
| 20260905054559 | 76 | 0 | 0.0 | 0.0 | 0.00 | 0.00 | 0.00 | 91 | 1014.6 |
| 20260905053057 | 76 | 0 | 0.0 | 0.0 | 0.00 | 0.00 | 0.00 | 91 | 1014.7 |
| 20260905051556 | 76 | 0 | 0.0 | 0.0 | 0.00 | 0.00 | 0.00 | 91 | 1014.9 |
| 20260905050053 | 76 | 0 | 0.0 | 0.0 | 0.00 | 0.00 | 0.00 | 90 | 1014.9 |
| 20260905044600 | 76 | 0 | 0.0 | 0.0 | 0.00 | 0.00 | 0.00 | 90 | 1015.0 |
| 20260905043115 | 77 | 0 | 0.0 | 0.0 | 0.00 | 0.00 | 0.00 | 90 | 1015.0 |
| 20260905041555 | 77 | 0 | 0.0 | 0.0 | 0.00 | 0.00 | 0.00 | 89 | 1015.0 |
| 20260905040115 | 77 | 0 | 0.0 | 0.0 | 0.00 | 0.00 | 0.00 | 89 | 1014.7 |
| 20260905034558 | 78 | 0 | 0.0 | 0.0 | 0.00 | 0.00 | 0.00 | 88 | 1014.7 |
| 20260905033102 | 78 | 0 | 0.0 | 0.0 | 0.00 | 0.00 | 0.00 | 87 | 1014.7 |
| 20260905031600 | 79 | 0 | 0.0 | 0.0 | 0.00 | 0.00 | 0.00 | 86 | 1014.6 |
| 20260905030055 | 79 | 0 | 0.0 | 0.0 | 0.00 | 0.00 | 0.00 | 85 | 1014.5 |
| 20260905024551 | 79 | 0 | 0.0 | 0.0 | 0.00 | 0.00 | 0.00 | 85 | 1014.7 |
| 20260905023058 | 80 | 0 | 0.0 | 0.0 | 0.00 | 0.00 | 0.00 | 85 | 1014.7 |
| 20260905021552 | 81 | 0 | 0.0 | 0.0 | 0.00 | 0.00 | 0.00 | 83 | 1014.7 |
| 20260905020055 | 81 | 0 | 0.0 | 0.0 | 0.00 | 0.00 | 0.00 | 81 | 1014.6 |
| 20260905014557 | 82 | 0 | 0.0 | 0.0 | 0.00 | 0.00 | 0.00 | 79 | 1014.7 |
| 20260905013101 | 82 | 0 | 0.0 | 0.0 | 0.00 | 0.00 | 0.00 | 78 | 1014.4 |
| 20260905011553 | 83 | 0 | 0.0 | 0.9 | 0.00 | 0.00 | 0.00 | 78 | 1014.5 |
| 20260905010054 | 83 | 0 | 0.0 | 0.0 | 0.00 | 0.00 | 0.00 | 83 | 1014.5 |
| 20260905004600 | 83 | 0 | 0.0 | 0.0 | 0.00 | 0.00 | 0.00 | 82 | 1014.4 |
| 20260905003051 | 84 | 0 | 0.0 | 0.9 | 0.00 | 0.00 | 0.00 | 81 | 1014.4 |
| 20260905001554 | 85 | 0 | 0.0 | 0.0 | 0.00 | 0.00 | 0.00 | 79 | 1014.6 |
| 20260904234556 | 88 | 0 | 0.0 | 0.0 | 0.00 | 0.00 | 0.00 | 73 | 1014.3 |